Regional Weather Roundup
Issued by NWS

Home | Current Version | Previous Version | Graphics & Text | Print | Product List | Glossary On
Versions: 1 2 3 4 5 6 7 8 9 10 11 12 13 14 15 16 17 18 19 20 21 22 23 24 25 26 27 28 29 30 31 32 33 34 35 36 37 38 39 40 41 42 43 44 45 46 47 48 49 50
000
ASUS45 KPSR 220310
RWRAZ

ARIZONA HOURLY REGIONAL WEATHER ROUNDUP
NATIONAL WEATHER SERVICE PHOENIX AZ
800 PM MST WED JUN 21 2017

NOTE: FAIR INDICATES FEW OR NO CLOUDS BELOW 12,000 FEET WITH NO
SIGNIFICANT WEATHER AND/OR OBSTRUCTIONS TO VISIBILITY.

AZZ001>003-036-220400-
NORTHWEST ARIZONA

CITY           SKY/WX    TMP DP  RH WIND       PRES   REMARKS
BULLHEAD CITY  CLEAR    113  28   5 SW6       29.53S HX 105
KINGMAN        CLEAR     98  31   9 SW14      29.82S
$$

AZZ004>008-015-016-018-220400-
NORTH CENTRAL ARIZONA

CITY           SKY/WX    TMP DP  RH WIND       PRES   REMARKS
GRAND CANYON   PTCLDY    84  25  11 W8        30.12R
PRESCOTT       CLEAR     92  25   9 W8        29.98R
FLAGSTAFF      PTCLDY    79  27  14 W5        30.15S
PAYSON         PTCLDY    95  27   8 SW8G16    30.00S
PAGE           CLEAR     99  27   8 NW7       29.83R
$$

AZZ009>014-017-220400-
NORTHEAST ARIZONA

CITY           SKY/WX    TMP DP  RH WIND       PRES   REMARKS
WINSLOW        MOCLDY    96  28   9 VRB3      29.94R
SAINT JOHNS    MOCLDY    89  31  12 S6        30.01F
WINDOW ROCK    PTCLDY    78  35  21 VRB3      30.10R
SHOW LOW       MOCLDY    84  28  13 SW8       30.10R
$$

AZZ540-542>544-546-548-220400-
GREATER PHOENIX AREA

CITY           SKY/WX    TMP DP  RH WIND       PRES   REMARKS
PHOENIX        PTCLDY   110  38   8 SW13      29.55S HX 103
BUCKEYE        CLEAR    106  39  10 SW13      29.58R HX 100
GLENDALE       PTCLDY   111  36   7 S14       29.58R HX 104
LUKE AFB       CLEAR    107  40  10 SW14      29.56R HX 101
DEER VALLEY    CLEAR    108  35   8 SW14      29.59R HX 101
SCOTTSDALE     CLEAR    109  35   8 SW7       29.61S HX 102
MESA-FALCON    PTCLDY   106  43  11 SW7       29.60R HX 101
MESA-GATEWAY   PTCLDY   108  39   9 W8        29.60S HX 101
CHANDLER       CLEAR    108  39   9 SW9       29.58S HX 101
$$

AZZ539-553-220400-
SOUTHWEST MARICOPA COUNTY AND PINAL COUNTY

CITY           SKY/WX    TMP DP  RH WIND       PRES   REMARKS
CASA GRANDE      N/A    N/A N/A N/A MISG        N/A
GILA BEND      CLEAR    107  46  12 SW14      29.57R HX 102
$$

AZZ503-504-507>509-220400-
SOUTHEAST ARIZONA

CITY           SKY/WX    TMP DP  RH WIND       PRES   REMARKS
TUCSON         CLOUDY   103  42  12 SE8       29.77F
DAVIS-MONTHAN  PTCLDY   101  41  12 SE3       29.75F
RYAN FIELD     CLEAR    104  39  11 SE13      29.74R
NOGALES        MOCLDY    89  41  18 CALM      29.90R
SIERRA VISTA   MOCLDY    87  42  20 S7        29.98F
DOUGLAS        CLOUDY    88  46  23 E10       29.95F
SAFFORD        MOCLDY    96  44  16 SE10      29.80R
$$

AZZ532-220400-
SOUTHWEST ARIZONA

CITY           SKY/WX    TMP DP  RH WIND       PRES   REMARKS
YUMA           CLEAR    100  60  26 S8        29.56R HX 100
$$

CAZ041-043-047-048-061-525>527-560>570-220400-
SOUTHERN CALIFORNIA

CITY           SKY/WX    TMP DP  RH WIND       PRES   REMARKS
DOWNTOWN L.A.  CLEAR     73  60  63 W3        29.70R
L.A. AIRPORT   CLEAR     67  61  81 W9        29.71R
SAN DIEGO      MOCLDY    65  32  29 W7        29.74S
BURBANK        CLEAR     80  54  40 SE10      29.70R
ONTARIO        CLEAR     86  60  41 SW10      29.70R
RIVERSIDE      CLEAR     87  58  37 W7        29.70R
PALM SPRINGS   CLEAR    109  42  10 NW18      29.57R HX 103
EL CENTRO NAS  CLEAR    103  60  24 S7        29.54R HX 104
IMPERIAL       CLOUDY   106  63  24 SE10      29.51S HX 109
BLYTHE         MOCLDY   113  24   4 SW14      29.53S HX 104
NEEDLES        MOCLDY   114  18   3 W6        29.57R HX 104
$$

NVZ020-UTZ003-220400-
SOUTHERN NEVADA-UTAH

CITY           SKY/WX    TMP DP  RH WIND       PRES   REMARKS
LAS VEGAS      CLEAR    107  19   4 SW12G20   29.66S
SALT LAKE CITY PTCLDY    90  48  23 N9        29.86S
$$

NMZ009-TXZ055-220400-
NEW MEXICO-WEST TEXAS

CITY           SKY/WX    TMP DP  RH WIND       PRES   REMARKS
ALBUQUERQUE    PTCLDY    95  30  10 NW8       29.92R
EL PASO        TSTM      80  63  55 W20       29.92R
$$


........................KEY........................
SKY/WX - SKY CONDITION/WEATHER
TMP    - TEMPERATURE IN FAHRENHEIT
DP     - DEW POINT IN FAHRENHEIT
RH     - RELATIVE HUMIDITY IN PERCENT
WIND   - DIRECTION AND SPEED IN MILES PER HOUR (MPH)
VRB    - VARIABLE WIND DIRECTION
PRES   - MEAN SEA LEVEL PRESSURE IN INCHES OF MERCURY
         F - FALLING PRESSURE   R - RISING PRESSURE
         S - STEADY PRESSURE
VSB    - VISIBILITY IN MILES
HX     - HEAT INDEX IN FAHRENHEIT
WCI    - WIND CHILL INDEX IN FAHRENHEIT
TC     - TEMPERATURE IN CELSIUS WHICH IS ALSO KNOWN AS
         TEMPERATURE IN CENTIGRADE
AFB    - AIR FORCE BASE
         LUKE AFB IS LUKE AIR FORCE BASE
         DAVIS-MONTHAN IS DAVIS-MONTHAN AIR FORCE BASE
NAS    - NAVAL AIR STATION
         EL CENTRO NAS IS EL CENTRO NAVAL AIR STATION
N/A    - NOT AVAILABLE





USA.gov is the U.S. government's official web portal to all federal, state and local government web resources and services.